Regional Weather Roundup
Issued by NWS Grand Forks, ND

Home | Current Version | Previous Version | Text Only | Print | Product List | Glossary Off
Versions: 1 2 3 4 5 6 7 8 9 10 11 12 13 14 15 16 17 18 19 20 21 22 23 24 25 26 27 28 29 30 31 32 33 34 35 36 37 38 39 40 41 42 43 44 45 46 47 48 49 50

000
ASUS43 KFGF 200110
RWRFGF
PRAIRIE TO PINES  WEATHER ROUNDUP
NATIONAL WEATHER SERVICE EASTERN NORTH DAKOTA/GRAND FORKS ND
800 PM CDT SAT APR 19 2014

 **SATELLITE DATA USED TO AUGMENT SKY COVER AT AUTOMATED STATIONS**
 *****  WEATHER ACROSS EASTERN NORTH DAKOTA  *****

CITY           SKY/WX    TMP DP  RH WIND       PRES   REMARKS
GRAND FORKS    CLEAR     52  39  61 W13       29.95R
GRAND FRKS AFB PTCLDY    51  37  59 W10       29.96R
GRAND FRKS NWS   N/A     52 N/A N/A NW9         N/A
DEVILS LAKE    CLEAR     48  34  57 W13       29.95R
FARGO          CLEAR     62  32  32 W9        29.92R
WAHPETON ARPT  CLEAR     61  27  27 SW7       29.95S
$$

 ***** WEATHER ACROSS CENTRAL AND WESTERN NORTH DAKOTA  *****

CITY           SKY/WX    TMP DP  RH WIND       PRES   REMARKS
BISMARCK       CLEAR     60  34  37 NW7       29.96S
MINOT          CLEAR     51  33  50 NW8       29.93S
JAMESTOWN      CLEAR     55  38  52 NW12      29.94R
MINOT AFB      CLEAR     50  35  56 NW10      29.93R
GARRISON         N/A     56  34  43 W6        29.94R
WILLISTON      CLEAR     57  33  40 SW6       29.91F
DICKINSON      CLEAR     58  28  32 W5        29.93S
HETTINGER      CLEAR     58  23  26 W9        29.97S
$$

 *****  OTHER AIRPORT OBSERVATIONS IN OUR AREA  *****

CITY           SKY/WX    TMP DP  RH WIND       PRES   REMARKS
WALHALLA         N/A     48  34  57 NW8       29.93R
GRAFTON AIRPOR FAIR      48  36  61 W14       29.94R
VALLEY CITY AR FAIR      55  39  54 NW14      29.95R
CANDO          FAIR      46  32  57 W14G22    29.94R
CAVALIER APRT  FAIR      48  36  61 NW9       29.93R
GWINNER        CLEAR     64  32  29 W8        29.95S
SHEYENNE NWR     N/A     66  29  25 W2        29.95S
ROLLA          FAIR      43  32  65 NW14      29.94R
 ***** THE ABOVE OBSERVATIONS ARE NON NWS ARE NOT QUALITY
       CONTROLLED AND MAY MIS-REPORT RAIN FOR SNOW...
$$

  *****  WEATHER ACROSS NORTHERN MINNESOTA  *****

CITY           SKY/WX    TMP DP  RH WIND       PRES   REMARKS
FLAG ISLAND    MOCLDY    48  36  61 W13G22    29.86R
WARROAD        PTCLDY    52  41  66 W12G17    29.89R
ROSEAU         CLEAR     52  41  66 W9        29.89R
HALLOCK        CLOUDY    50  37  62 NW10      29.92R
THF RVR FALLS  CLEAR     52  37  58 W14       29.93S
BAUDETTE       MOCLDY    53  40  61 VRB5      29.89R
WASKISH        CLEAR     43  36  75 SW9       29.90S
CROOKSTON      CLEAR     54  41  62 NW14      29.95R
$$
  *****  WEATHER ACROSS CENTRAL AND WEST MINNESOTA  *****

CITY           SKY/WX    TMP DP  RH WIND       PRES   REMARKS
FOSSTON        CLEAR     55  39  54 NW10G16   29.94R
BEMIDJI        CLEAR     59  34  39 W12G20    29.92R
PARK RAPIDS    CLEAR     55  33  43 W7        29.94S
ELBOW LAKE     FAIR      59  35  40 NW5       29.96S
WADENA         CLEAR     57  34  41 W5        29.96R
DETROIT LAKES  CLEAR     59  32  36 SW5       29.96R
MOORHEAD       NOT AVBL
FERGUS FALLS   CLEAR     59  30  33 W5        29.92S
MORRIS MN      PTCLDY    63  34  34 SW5       29.96S
STAPLES        CLEAR     57  30  35 W7        29.96S
$$
  *****  WEATHER ELSEWHERE ACROSS MINNESOTA  *****

CITY           SKY/WX    TMP DP  RH WIND       PRES   REMARKS
DULUTH         PTCLDY    35  29  78 SE10      29.99S
INTRNTL FALLS  CLEAR     56  34  43 W10       29.88R
ELY            CLEAR     45  36  70 S9        29.94S
CLOQUET        CLEAR     39  30  70 E5        29.99S
WHEATON        CLEAR     66  36  32 CALM      29.97S
BRAINERD       CLEAR     66  28  24 W6        29.96R
HIBBING        CLEAR     54  39  57 S6        29.93S
ALEXANDRIA     PTCLDY    59  32  36 W7        29.98R
SAINT CLOUD    MOCLDY    55  47  74 S3        29.98R
MINNEAPOLIS    CLOUDY    60  53  77 VRB5      29.98R
$$

  *****  WEATHER ACROSS SOUTH DAKOTA  *****

CITY           SKY/WX    TMP DP  RH WIND       PRES   REMARKS
SIOUX FALLS    CLOUDY    62  37  39 N6        29.98S
BROOKINGS      NOT AVBL
WATERTOWN      MOCLDY    59  28  30 W7        29.99R
HURON          MOCLDY    62  25  24 SW5       29.98S
SISSETON         N/A     63  33  32 NW3       29.95R
ABERDEEN       PTCLDY    62  27  26 W8        29.96R
MITCHELL       PTCLDY    66  24  20 S6        30.00S
PIERRE         MOCLDY    64  23  21 S5        29.97F
MOBRIDGE       CLEAR     63  26  24 W7        29.94R
RAPID CITY     MOCLDY    60  33  36 SE12      29.98S
$$

  *****  SOME WEATHER IN NEARBY STATES *****

CITY           SKY/WX    TMP DP  RH WIND       PRES   REMARKS
GLASGOW MT     CLEAR     58  28  32 SE9       29.86S
GREAT FALLS MT SUNNY     61  13  15 SW8       29.80S
CHEYENNE WY    PTCLDY    59  38  45 S14G24    30.05R
SCOTTSBLUFF NE CLEAR     63  33  32 SE14      29.99S
OMAHA NE       MOCLDY    76  43  30 S16       29.96R
DES MOINES IA  MOCLDY    71  43  36 S10       30.04F
DAVENPORT IA   MOCLDY    65  33  30 S12       30.14S
CHICAGO IL     MOCLDY    57  35  43 E8        30.22S
EAU CLAIRE WI  CLOUDY    63  39  41 SE3       30.03R
LA CROSSE WI   MOCLDY    64  39  39 S7        30.05F
$$

  *****  SOME NATIONAL WEATHER *****

CITY           SKY/WX    TMP DP  RH WIND       PRES   REMARKS
LA GUARDIA NY  MOCLDY    57  27  31 E6        30.29R
RALEIGH NC     CLOUDY    52  43  71 NE7       30.20S
ATLANTA GA     CLOUDY    57  49  74 NE22      30.16R
NEW ORLEANS LA PTCLDY    73  53  49 NW5       30.09S
OKLAHOMA CITY  CLOUDY    72  49  44 S10       30.06S
ALBUQUERQUE NM CLOUDY    59  41  51 CALM      30.09R
SALT LAKE CITY PTSUNNY   70  36  28 CALM      29.96F
LOS ANGELES CA MOSUNNY   64  55  72 W14       29.99S
BOISE ID       MOSUNNY   74  23  15 E10       29.80F
SEATTLE WA     PTSUNNY   50  45  83 SW21G29   29.99R
$$

*** WEATHER ACROSS MANITOBA...SASKATCHEWAN AND ONTARIO ***
                ***ONTARIO***

CITY           SKY/WX    TMP DP  RH WIND       PRES   REMARKS
GERALDTON      DRIZZLE   32  30  93 S14G21    30.11F FOG     WCI  22
THUNDER BAY    PTCLDY    34  32  93 NE7       30.07F
SIOUX LOOKOUT  PTCLDY    37  34  87 S10       29.86S
TORONTO        PTCLDY    43  28  56 E5        30.39S
BIG TROUT LK   NOT AVBL
PICKLE LAKE    SLEET     32  32 100 S16G26    29.87F WCI  21
DRYDEN         CLEAR     41  36  81 S8        29.83R
KENORA         MOCLDY    45  36  70 W16G26    29.86R
$$
                *** MANITOBA***

CITY           SKY/WX    TMP DP  RH WIND       PRES   REMARKS
BRANDON        MOCLDY    37  30  75 NW15G22   29.93R
DAUPHIN        CLOUDY    36  30  80 W18G28    29.88R
ISLAND LAKE    LGTSLEET  34  34 100 SE8       29.67F
PILOT MOUND      N/A     43  34  70 W12G18      N/A
THE PAS        FLURRIES  32  32 100 NW9       29.79R WCI  24
THOMPSON       LGT SNOW  32  32 100 NE9       29.76F WCI  24
WINNIPEG       MOCLDY    41  34  75 W12       29.91R
LYNN LAKE      CLOUDY    34  23  64 E10       29.82F
CHURCHILL      CLOUDY    25  19  80 E14       30.04F WCI  13
GILLAM         LGT SNOW  32  32 100 E6        29.86F
$$
                ***SASKATCHEWAN***

CITY           SKY/WX    TMP DP  RH WIND       PRES   REMARKS
ESTEVAN        PTCLDY    45  36  70 N7        29.93F
KINDERSLEY     MOSUNNY   50  32  50 S6        29.82S
LLOYDMINSTER   MOSUNNY   48  30  49 E10       29.77S
PRINCE ALBERT  CLOUDY    37  28  70 W10       29.85R
REGINA         MOCLDY    39  34  81 NW6       29.92S
YORKTON        CLOUDY    34  28  80 W12       29.89R
N. BATTLEFORD  SUNNY     41  32  70 NE8       29.86R
LA RONGE       CLOUDY    36  27  69 W5        29.84S
SASKATOON      PTCLDY    39  32  75 SW5       29.88S
SWIFT CURRENT  SUNNY     46  32  57 N5        29.84S
$$
NOTE: THESE ARE AUTOMATED STATIONS WITH LIMITED QUALITY CONTROL
      "FAIR" INDICATES FEW OR NO CLOUDS BELOW 12,000 FEET WITH NO
      SIGNIFICANT WEATHER AND/OR OBSTRUCTIONS TO VISIBILITY.
      SKY/WX - SKY CONDITION AND SIGNIFICANT WEATHER.
      TMP - AIR TEMPERATURE.    DP   - DEWPOINT TEMPERATURE.
      RH  - RELATIVE HUMIDITY.  PRES - PRESSURE.
      HX  - HEAT INDEX.         WCI  - WIND CHILL INDEX.
$



USA.gov is the U.S. government's official web portal to all federal, state and local government web resources and services.